User: anonymous   Login
Location: Nairn
(57.5833°N, 3.8667°W)
Time: 07:43:00
(UTC+00:00)
Language:

Meteor 2-13 Rocket - Orbit

View from above orbital plane
View from above orbital plane
View from above satellite
View from above satellite

Ground track
Ground track

The orbit data is extracted from the following two-line orbital elements,

1 16409U 85119B   20295.97506812  .00000016  00000-0  14319-5 0  9990
2 16409  82.5334 106.0290 0014696 188.1177 171.9748 13.84813975760069
Epoch (UTC): 21 October 2020 23:24:05
Eccentricity: 0.0014696
inclination: 82.5334°
perigee height: 936 km
apogee height: 957 km
right ascension of ascending node: 106.0290°
argument of perigee: 188.1177°
revolutions per day: 13.84813975
mean anomaly at epoch: 171.9748°
orbit number at epoch: 76006

The dashed part of the orbit path shows where the satellite is in the earth's shadow,  

DLR